Weather in Lycksele

Sweden     64°35′32″N   18°40′49″E
temp.,
°C
wind,
m/s
gust,
m/s
humid.,
%
clouds,
%
prec.,
mm/h
press.,
hPa
HPBL,
m
13 may, thu
thu1323:00+11sse3972100 0.0 1012299
02:00+7se238095 0.0 101287
05:00+7se2480100 0.0 1011133
08:00+13s125969 0.0 1011334
11:00+18ssw244788 0.0 1010980
14:00+21ssw464562 0.0 10091752
17:00+19ssw2555100 0.0 1009774
20:00+13n4781100 0.0 1011357
14 may, fri
fri1423:00+9n3793100 0.0 1012263
02:00+8nne3591100 0.0 1013280
05:00+7nne3591100 0.0 1013321
08:00+7nne4586100 0.0 1013471
11:00+7n4681100 0.0 1014551
14:00+8n4675100 0.0 1013563
17:00+9n467495 0.0 1012712
20:00+6nne4880100 0.0 1012548
15 may, sat
sat1523:00+4n4886100 0.0 1012433
02:00+3n3794100 0.9 1012362
05:00+3n3695100 0.5 1011339
08:00+4n3594100 0.5 1011352
11:00+7nne3484100 0.0 1010576
14:00+10nne4574100 0.0 1008689
17:00+12nne4666100 0.0 10061066
20:00+10nne4877100 0.0 1006677
16 may, sun
sun1623:00+6n41088100 0.0 1006423
02:00+5n41093100 0.0 1005476
05:00+5nne41195100 0.0 1004629
08:00+6nne41294100 0.2 1004644
11:00+6nne41190100 0.3 1005720
14:00+6ne4989100 0.4 1005851
17:00+5ne3595100 0.1 1006565
20:00+5ne2697100 0.3 1007376
17 may, mon
mon1723:00+5ne2498100 0.1 1009365
02:00+5ne1498100 0.1 1010374
05:00+5nne1498100 0.0 1011337
08:00+6ene2496100 0.0 1012380
11:00+8ene348585 0.1 1012554
14:00+11ene346789 0.1 1012838
17:00+12ene5668100 0.0 1011887
20:00+9e41183100 0.6 1010808